Time,TemperatureF,DewpointF,PressureIn,WindDirection,WindDirectionDegrees,WindSpeedMPH,WindSpeedGustMPH,Humidity,HourlyPrecipIn,Conditions,Clouds,dailyrainin,SolarRadiationWatts/m^2,SoftwareType,DateUTC
2017-03-28 00:01:00,54.9,15.6,30.30,West,270,0.9,2.5,21,0.00,,,0.00,0.00,Weather logger V3.1.,2017-03-28 07:01:00,
2017-03-28 00:06:00,54.7,14.4,30.30,WNW,301,3.4,4.9,20,0.00,,,0.00,0.00,Weather logger V3.1.,2017-03-28 07:06:00,
2017-03-28 00:11:00,54.7,14.4,30.29,West,263,1.6,2.5,20,0.00,,,0.00,0.00,Weather logger V3.1.,2017-03-28 07:11:00,
2017-03-28 00:16:00,54.5,14.2,30.29,West,270,3.4,4.9,20,0.00,,,0.00,0.00,Weather logger V3.1.,2017-03-28 07:16:00,
2017-03-28 00:21:00,54.3,15.3,30.29,West,278,2.9,4.9,21,0.00,,,0.00,0.00,Weather logger V3.1.,2017-03-28 07:21:00,
2017-03-28 00:26:00,54.3,14.2,30.29,WNW,300,3.1,4.9,20,0.00,,,0.00,0.00,Weather logger V3.1.,2017-03-28 07:26:00,
2017-03-28 00:31:00,54.1,14.0,30.29,NW,318,6.0,7.6,20,0.00,,,0.00,0.00,Weather logger V3.1.,2017-03-28 07:31:00,
2017-03-28 00:37:00,54.1,12.7,30.29,West,272,3.1,4.9,19,0.00,,,0.00,0.00,Weather logger V3.1.,2017-03-28 07:37:00,
2017-03-28 00:42:00,54.3,12.9,30.29,WNW,298,2.5,4.9,19,0.00,,,0.00,0.00,Weather logger V3.1.,2017-03-28 07:42:00,
2017-03-28 00:47:00,54.3,12.9,30.29,West,279,4.0,4.9,19,0.00,,,0.00,0.00,Weather logger V3.1.,2017-03-28 07:47:00,
2017-03-28 00:52:00,54.5,14.2,30.29,West,262,3.1,4.9,20,0.00,,,0.00,0.00,Weather logger V3.1.,2017-03-28 07:52:00,
2017-03-28 00:57:00,54.5,13.1,30.29,WNW,284,2.5,2.5,19,0.00,,,0.00,0.00,Weather logger V3.1.,2017-03-28 07:57:00,
2017-03-28 01:02:00,54.7,13.3,30.28,NW,310,2.2,2.5,19,0.00,,,0.00,0.00,Weather logger V3.1.,2017-03-28 08:02:00,
2017-03-28 01:07:00,54.7,13.3,30.28,WNW,283,1.8,2.5,19,0.00,,,0.00,0.00,Weather logger V3.1.,2017-03-28 08:07:00,
2017-03-28 01:12:00,54.5,14.2,30.28,West,279,0.9,2.5,20,0.00,,,0.00,0.00,Weather logger V3.1.,2017-03-28 08:12:00,
2017-03-28 01:17:00,54.3,14.2,30.28,North,4,1.6,2.5,20,0.00,,,0.00,0.00,Weather logger V3.1.,2017-03-28 08:17:00,
2017-03-28 01:22:00,54.1,16.2,30.28,NNW,336,0.2,2.5,22,0.00,,,0.00,0.00,Weather logger V3.1.,2017-03-28 08:22:00,
2017-03-28 01:27:00,53.8,16.9,30.28,NW,323,0.0,0.0,23,0.00,,,0.00,0.00,Weather logger V3.1.,2017-03-28 08:27:00,
2017-03-28 01:32:00,53.4,17.6,30.28,WNW,283,1.6,2.5,24,0.00,,,0.00,0.00,Weather logger V3.1.,2017-03-28 08:32:00,
2017-03-28 01:37:00,53.1,16.3,30.28,NNW,328,2.5,4.9,23,0.00,,,0.00,0.00,Weather logger V3.1.,2017-03-28 08:37:00,
2017-03-28 01:42:00,52.9,14.0,30.28,West,274,2.2,2.5,21,0.00,,,0.00,0.00,Weather logger V3.1.,2017-03-28 08:42:00,
2017-03-28 01:47:00,52.9,16.2,30.28,NW,311,4.9,7.6,23,0.00,,,0.00,0.00,Weather logger V3.1.,2017-03-28 08:47:00,
2017-03-28 01:53:00,52.9,12.9,30.27,WNW,289,2.9,4.9,20,0.00,,,0.00,0.00,Weather logger V3.1.,2017-03-28 08:53:00,
2017-03-28 01:58:00,53.1,13.1,30.28,West,272,1.8,2.5,20,0.00,,,0.00,0.00,Weather logger V3.1.,2017-03-28 08:58:00,
2017-03-28 02:03:00,53.2,13.3,30.28,NW,320,3.1,4.9,20,0.00,,,0.00,0.00,Weather logger V3.1.,2017-03-28 09:03:00,
2017-03-28 02:08:00,53.4,13.3,30.27,North,1,3.4,4.9,20,0.00,,,0.00,0.00,Weather logger V3.1.,2017-03-28 09:08:00,
2017-03-28 02:13:00,53.2,16.3,30.27,North,11,0.9,2.5,23,0.00,,,0.00,0.00,Weather logger V3.1.,2017-03-28 09:13:00,
2017-03-28 02:18:00,53.1,21.7,30.27,WNW,285,0.0,0.0,29,0.00,,,0.00,0.00,Weather logger V3.1.,2017-03-28 09:18:00,
2017-03-28 02:23:00,52.5,22.8,30.27,West,265,0.9,2.5,31,0.00,,,0.00,0.00,Weather logger V3.1.,2017-03-28 09:23:00,
2017-03-28 02:28:00,52.2,22.5,30.27,West,276,2.2,2.5,31,0.00,,,0.00,0.00,Weather logger V3.1.,2017-03-28 09:28:00,
2017-03-28 02:33:00,51.6,21.9,30.28,West,263,2.5,2.5,31,0.00,,,0.00,0.00,Weather logger V3.1.,2017-03-28 09:33:00,
2017-03-28 02:38:00,51.3,21.7,30.28,West,279,2.2,2.5,31,0.00,,,0.00,0.00,Weather logger V3.1.,2017-03-28 09:38:00,
2017-03-28 02:43:00,50.9,21.4,30.28,NW,309,1.8,2.5,31,0.00,,,0.00,0.00,Weather logger V3.1.,2017-03-28 09:43:00,
2017-03-28 02:48:00,50.7,21.2,30.27,West,279,1.8,2.5,31,0.00,,,0.00,0.00,Weather logger V3.1.,2017-03-28 09:48:00,
2017-03-28 02:53:00,50.7,21.2,30.27,NW,321,2.2,2.5,31,0.00,,,0.00,0.00,Weather logger V3.1.,2017-03-28 09:53:00,
2017-03-28 02:58:00,50.7,21.2,30.27,WNW,302,1.6,2.5,31,0.00,,,0.00,0.00,Weather logger V3.1.,2017-03-28 09:58:00,
2017-03-28 03:03:00,50.5,21.7,30.27,NW,304,1.3,2.5,32,0.00,,,0.00,0.00,Weather logger V3.1.,2017-03-28 10:03:00,
2017-03-28 03:09:00,50.4,25.7,30.26,WNW,287,1.8,2.5,38,0.00,,,0.00,0.00,Weather logger V3.1.,2017-03-28 10:09:00,
2017-03-28 03:14:00,50.2,25.0,30.27,NW,317,3.1,4.9,37,0.00,,,0.00,0.00,Weather logger V3.1.,2017-03-28 10:14:00,
2017-03-28 03:19:00,49.8,23.9,30.26,North,1,0.9,2.5,36,0.00,,,0.00,0.00,Weather logger V3.1.,2017-03-28 10:19:00,
2017-03-28 03:30:00,49.8,23.9,-100.00,North,0,0.9,2.5,36,-99.99,,,0.00,0.00,Weather logger V3.1.,2017-03-28 10:30:00,
2017-03-28 03:35:00,49.5,31.1,30.27,WNW,297,0.0,0.0,49,0.00,,,0.00,0.00,Weather logger V3.1.,2017-03-28 10:35:00,
2017-03-28 03:40:00,48.9,30.6,30.26,NW,322,0.9,2.5,49,0.00,,,0.00,0.00,Weather logger V3.1.,2017-03-28 10:40:00,
2017-03-28 03:46:00,48.6,30.7,30.27,WNW,289,0.0,0.0,50,0.00,,,0.00,0.00,Weather logger V3.1.,2017-03-28 10:46:00,
2017-03-28 03:51:00,48.2,30.4,30.27,North,1,0.7,2.5,50,0.00,,,0.00,0.00,Weather logger V3.1.,2017-03-28 10:51:00,
2017-03-28 03:56:00,47.7,30.9,30.27,NW,326,0.0,0.0,52,0.00,,,0.00,0.00,Weather logger V3.1.,2017-03-28 10:56:00,
2017-03-28 04:01:00,47.3,30.6,30.27,NW,324,0.7,2.5,52,0.00,,,0.00,0.00,Weather logger V3.1.,2017-03-28 11:01:00,
2017-03-28 04:06:00,46.9,31.1,30.27,NW,324,0.2,2.5,54,0.00,,,0.00,0.00,Weather logger V3.1.,2017-03-28 11:06:00,
2017-03-28 04:11:00,46.6,31.8,30.27,WNW,283,0.0,0.0,56,0.00,,,0.00,0.00,Weather logger V3.1.,2017-03-28 11:11:00,
2017-03-28 04:16:00,46.0,32.2,30.27,NW,323,1.6,2.5,58,0.00,,,0.00,0.00,Weather logger V3.1.,2017-03-28 11:16:00,
2017-03-28 04:21:00,45.9,32.0,30.27,North,5,1.3,2.5,58,0.00,,,0.00,0.00,Weather logger V3.1.,2017-03-28 11:21:00,
2017-03-28 04:26:00,45.7,31.3,30.27,North,354,0.7,2.5,57,0.00,,,0.00,0.00,Weather logger V3.1.,2017-03-28 11:26:00,
2017-03-28 04:31:00,45.5,31.1,30.27,NNW,335,1.6,2.5,57,0.00,,,0.00,0.00,Weather logger V3.1.,2017-03-28 11:31:00,
2017-03-28 04:36:00,45.3,30.6,30.26,North,359,1.3,2.5,56,0.00,,,0.00,0.00,Weather logger V3.1.,2017-03-28 11:36:00,
2017-03-28 04:41:00,45.3,30.2,30.26,NNE,21,0.7,2.5,55,0.00,,,0.00,0.00,Weather logger V3.1.,2017-03-28 11:41:00,
2017-03-28 04:46:00,45.3,30.6,30.27,North,359,0.2,2.5,56,0.00,,,0.00,0.00,Weather logger V3.1.,2017-03-28 11:46:00,
2017-03-28 04:51:00,45.1,31.6,30.27,NW,310,0.0,0.0,59,0.00,,,0.00,0.00,Weather logger V3.1.,2017-03-28 11:51:00,
2017-03-28 04:57:00,45.0,31.5,30.27,NNW,334,0.9,2.5,59,0.00,,,0.00,0.00,Weather logger V3.1.,2017-03-28 11:57:00,
2017-03-28 05:02:00,45.0,31.5,30.27,WNW,287,0.0,0.0,59,0.00,,,0.00,0.00,Weather logger V3.1.,2017-03-28 12:02:00,
2017-03-28 05:07:00,44.8,31.3,30.27,North,357,1.3,2.5,59,0.00,,,0.00,0.00,Weather logger V3.1.,2017-03-28 12:07:00,
2017-03-28 05:12:00,44.6,30.7,30.27,NNW,329,0.0,0.0,58,0.00,,,0.00,0.00,Weather logger V3.1.,2017-03-28 12:12:00,
2017-03-28 05:17:00,44.4,31.5,30.27,West,280,0.2,2.5,60,0.00,,,0.00,0.00,Weather logger V3.1.,2017-03-28 12:17:00,
2017-03-28 05:22:00,44.4,31.8,30.27,West,268,0.0,0.0,61,0.00,,,0.00,0.00,Weather logger V3.1.,2017-03-28 12:22:00,
2017-03-28 05:27:00,44.4,30.9,30.27,North,7,1.3,2.5,59,0.00,,,0.00,0.00,Weather logger V3.1.,2017-03-28 12:27:00,
2017-03-28 05:32:00,44.6,30.4,30.27,NNW,332,2.9,4.9,57,0.00,,,0.00,0.00,Weather logger V3.1.,2017-03-28 12:32:00,
2017-03-28 05:37:00,44.8,29.1,30.27,NW,311,2.5,4.9,54,0.00,,,0.00,0.00,Weather logger V3.1.,2017-03-28 12:37:00,
2017-03-28 05:40:00,45.1,29.1,30.28,NNW,333,0.9,2.5,53,0.00,,,0.00,0.00,Weather logger V3.1.,2017-03-28 12:40:00,
2017-03-28 05:45:00,45.5,29.3,30.28,North,1,2.5,4.9,53,0.00,,,0.00,0.00,Weather logger V3.1.,2017-03-28 12:45:00,
2017-03-28 05:50:00,45.9,29.7,30.28,NW,306,1.8,2.5,53,0.00,,,0.00,0.00,Weather logger V3.1.,2017-03-28 12:50:00,
2017-03-28 05:55:00,46.2,30.6,30.28,WNW,290,2.9,4.9,54,0.00,,,0.00,0.00,Weather logger V3.1.,2017-03-28 12:55:00,
2017-03-28 06:00:00,46.6,30.9,30.28,WNW,298,2.9,4.9,54,0.00,,,0.00,0.00,Weather logger V3.1.,2017-03-28 13:00:00,
2017-03-28 06:05:00,46.8,30.6,30.28,WSW,256,2.9,4.9,53,0.00,,,0.00,0.00,Weather logger V3.1.,2017-03-28 13:05:00,
2017-03-28 06:10:00,46.8,30.6,30.29,WNW,300,3.1,4.9,53,0.00,,,0.00,0.00,Weather logger V3.1.,2017-03-28 13:10:00,
2017-03-28 06:15:00,46.8,31.1,30.29,NW,323,2.5,2.5,54,0.00,,,0.00,0.00,Weather logger V3.1.,2017-03-28 13:15:00,
2017-03-28 06:20:00,46.8,30.6,30.29,North,0,0.9,2.5,53,0.00,,,0.00,0.00,Weather logger V3.1.,2017-03-28 13:20:00,
2017-03-28 06:25:00,46.6,31.3,30.29,North,3,0.9,2.5,55,0.00,,,0.00,0.00,Weather logger V3.1.,2017-03-28 13:25:00,
2017-03-28 06:30:00,46.2,30.9,30.28,NNE,13,0.7,2.5,55,0.00,,,0.00,0.00,Weather logger V3.1.,2017-03-28 13:30:00,
2017-03-28 06:35:00,45.9,31.1,30.28,North,1,2.5,2.5,56,0.00,,,0.00,0.00,Weather logger V3.1.,2017-03-28 13:35:00,
2017-03-28 06:41:00,45.5,30.4,30.29,North,355,1.3,2.5,55,0.00,,,0.00,0.00,Weather logger V3.1.,2017-03-28 13:41:00,
2017-03-28 06:46:00,45.3,29.7,30.28,NW,312,0.9,2.5,54,0.00,,,0.00,0.00,Weather logger V3.1.,2017-03-28 13:46:00,
2017-03-28 06:51:00,45.3,29.7,30.29,WNW,302,1.3,2.5,54,0.00,,,0.00,0.00,Weather logger V3.1.,2017-03-28 13:51:00,
2017-03-28 06:52:00,45.1,29.5,30.29,WNW,302,1.3,2.5,54,0.00,,,0.00,0.00,Weather logger V3.1.,2017-03-28 13:52:00,
2017-03-28 06:57:00,45.1,30.0,30.29,WNW,289,1.3,2.5,55,0.00,,,0.00,0.00,Weather logger V3.1.,2017-03-28 13:57:00,
2017-03-28 07:02:00,45.3,29.7,30.29,WSW,240,0.0,0.0,54,0.00,,,0.00,2.37,Weather logger V3.1.,2017-03-28 14:02:00,
2017-03-28 07:07:00,45.7,29.1,30.29,NW,313,2.2,2.5,52,0.00,,,0.00,20.35,Weather logger V3.1.,2017-03-28 14:07:00,